| time (UTC) | temp F | wind direction | speed MPH | gust MPH | rain 1hr in | rain 24hr in | rain mn in | humidity % | barometer mb |
| 20260903121504 | 63 | 227 | 0.0 | 0.0 | 0.00 | 0.00 | 0.00 | 31 | 1004.9 |
| 20260903120003 | 63 | 236 | 0.0 | 0.0 | 0.00 | 0.00 | 0.00 | 33 | 1005.0 |
| 20260903114502 | 63 | 216 | 0.0 | 1.0 | 0.00 | 0.00 | 0.00 | 35 | 1005.1 |
| 20260903113100 | 63 | 222 | 0.0 | 0.0 | 0.00 | 0.00 | 0.00 | 34 | 1005.1 |
| 20260903111607 | 62 | 234 | 0.0 | 1.0 | 0.00 | 0.00 | 0.00 | 37 | 1005.1 |
| 20260903110058 | 62 | 238 | 0.0 | 0.0 | 0.00 | 0.00 | 0.00 | 42 | 1005.2 |
| 20260903104556 | 61 | 237 | 0.0 | 0.0 | 0.00 | 0.00 | 0.00 | 45 | 1005.3 |
| 20260903103056 | 60 | 268 | 0.0 | 0.0 | 0.00 | 0.00 | 0.00 | 47 | 1005.5 |
| 20260903101557 | 60 | 265 | 0.0 | 0.0 | 0.00 | 0.00 | 0.00 | 50 | 1005.6 |
| 20260903100054 | 61 | 264 | 0.0 | 0.0 | 0.00 | 0.00 | 0.00 | 50 | 1005.7 |
| 20260903094551 | 61 | 263 | 0.0 | 0.0 | 0.00 | 0.00 | 0.00 | 47 | 1005.8 |
| 20260903093047 | 61 | 268 | 0.0 | 2.0 | 0.00 | 0.00 | 0.00 | 45 | 1006.0 |
| 20260903091544 | 61 | 276 | 0.0 | 0.0 | 0.00 | 0.00 | 0.00 | 48 | 1006.1 |
| 20260903090043 | 61 | 270 | 0.0 | 0.0 | 0.00 | 0.00 | 0.00 | 46 | 1006.2 |
| 20260903084542 | 61 | 276 | 0.0 | 0.0 | 0.00 | 0.00 | 0.00 | 44 | 1006.4 |
| 20260903083046 | 62 | 280 | 0.0 | 0.0 | 0.00 | 0.00 | 0.00 | 42 | 1006.5 |
| 20260903081537 | 62 | 281 | 0.0 | 0.0 | 0.00 | 0.00 | 0.00 | 41 | 1006.4 |
| 20260903080038 | 61 | 295 | 0.0 | 0.0 | 0.00 | 0.00 | 0.00 | 43 | 1006.6 |
| 20260903074532 | 62 | 271 | 0.0 | 0.0 | 0.00 | 0.00 | 0.00 | 41 | 1006.7 |
| 20260903073032 | 64 | 233 | 0.0 | 1.0 | 0.00 | 0.00 | 0.00 | 25 | 1006.7 |
| 20260903071527 | 64 | 243 | 0.0 | 0.0 | 0.00 | 0.00 | 0.00 | 27 | 1006.7 |
| 20260903070023 | 65 | 251 | 0.0 | 0.0 | 0.00 | 0.00 | 0.00 | 27 | 1006.8 |
| 20260903064528 | 64 | 248 | 0.0 | 0.0 | 0.00 | 0.00 | 0.00 | 33 | 1006.7 |
| 20260903063023 | 65 | 255 | 0.0 | 1.0 | 0.00 | 0.00 | 0.00 | 38 | 1006.8 |
| 20260903061524 | 65 | 244 | 0.0 | 0.0 | 0.00 | 0.00 | 0.00 | 38 | 1006.8 |
| 20260903060021 | 65 | 237 | 0.0 | 0.0 | 0.00 | 0.00 | 0.00 | 39 | 1006.9 |
| 20260903054521 | 65 | 216 | 0.0 | 0.0 | 0.00 | 0.00 | 0.00 | 38 | 1007.0 |
| 20260903053021 | 66 | 222 | 0.0 | 0.0 | 0.00 | 0.00 | 0.00 | 39 | 1007.1 |
| 20260903051520 | 66 | 208 | 0.0 | 1.0 | 0.00 | 0.00 | 0.00 | 38 | 1007.1 |
| 20260903050020 | 67 | 208 | 0.0 | 2.0 | 0.00 | 0.00 | 0.00 | 37 | 1007.1 |
| 20260903044521 | 68 | 228 | 0.0 | 1.0 | 0.00 | 0.00 | 0.00 | 33 | 1007.1 |
| 20260903043019 | 68 | 233 | 0.0 | 0.0 | 0.00 | 0.00 | 0.00 | 31 | 1007.0 |
| 20260903041519 | 69 | 239 | 0.0 | 1.0 | 0.00 | 0.00 | 0.00 | 31 | 1006.9 |
| 20260903040018 | 68 | 266 | 0.0 | 1.0 | 0.00 | 0.00 | 0.00 | 34 | 1006.8 |
| 20260903034524 | 69 | 245 | 0.0 | 1.0 | 0.00 | 0.00 | 0.00 | 36 | 1006.6 |
| 20260903033017 | 70 | 359 | 0.0 | 2.0 | 0.00 | 0.00 | 0.00 | 34 | 1006.3 |
| 20260903031517 | 71 | 359 | 0.0 | 2.0 | 0.00 | 0.00 | 0.00 | 31 | 1006.0 |
| 20260903030017 | 71 | 359 | 0.0 | 2.0 | 0.00 | 0.00 | 0.00 | 30 | 1005.8 |
| 20260903024516 | 72 | 359 | 0.0 | 2.0 | 0.00 | 0.00 | 0.00 | 31 | 1005.7 |
| 20260903023016 | 72 | 359 | 0.0 | 2.0 | 0.00 | 0.00 | 0.00 | 33 | 1005.8 |
| 20260903021520 | 72 | 359 | 0.0 | 2.0 | 0.00 | 0.00 | 0.00 | 33 | 1005.7 |
| 20260903020028 | 73 | 224 | 0.0 | 2.0 | 0.00 | 0.00 | 0.00 | 33 | 1005.9 |
| 20260903014514 | 74 | 218 | 1.0 | 3.0 | 0.00 | 0.00 | 0.00 | 32 | 1005.8 |
| 20260903013013 | 75 | 175 | 1.0 | 3.0 | 0.00 | 0.00 | 0.00 | 29 | 1005.7 |
| 20260903011513 | 75 | 195 | 1.0 | 5.0 | 0.00 | 0.00 | 0.00 | 26 | 1005.8 |
| 20260903010013 | 76 | 188 | 1.0 | 6.0 | 0.00 | 0.00 | 0.00 | 23 | 1005.7 |
| 20260903004512 | 77 | 189 | 1.0 | 6.0 | 0.00 | 0.00 | 0.00 | 24 | 1005.6 |
| 20260903003012 | 77 | 204 | 2.0 | 8.0 | 0.00 | 0.00 | 0.00 | 21 | 1005.5 |
| 20260903001512 | 77 | 182 | 1.0 | 3.0 | 0.00 | 0.00 | 0.00 | 24 | 1005.4 |
| 20260903000011 | 78 | 180 | 1.0 | 3.0 | 0.00 | 0.00 | 0.00 | 25 | 1005.4 |
| 20260902234516 | 78 | 224 | 1.0 | 4.0 | 0.00 | 0.00 | 0.00 | 26 | 1005.5 |
| 20260902233013 | 78 | 213 | 1.0 | 3.0 | 0.00 | 0.00 | 0.00 | 25 | 1005.6 |
| 20260902231515 | 78 | 187 | 1.0 | 5.0 | 0.00 | 0.00 | 0.00 | 25 | 1005.6 |
| 20260902230007 | 78 | 179 | 2.0 | 4.0 | 0.00 | 0.00 | 0.00 | 27 | 1005.6 |
| 20260902224507 | 79 | 156 | 1.0 | 6.0 | 0.00 | 0.00 | 0.00 | 24 | 1005.7 |
| 20260902223005 | 79 | 198 | 1.0 | 3.0 | 0.00 | 0.00 | 0.00 | 23 | 1006.0 |
| 20260902221505 | 79 | 233 | 1.0 | 3.0 | 0.00 | 0.00 | 0.00 | 20 | 1006.2 |
| 20260902220004 | 79 | 191 | 1.0 | 4.0 | 0.00 | 0.00 | 0.00 | 18 | 1006.3 |
| 20260902214501 | 79 | 190 | 1.0 | 3.0 | 0.00 | 0.00 | 0.00 | 18 | 1006.5 |
| 20260902213104 | 79 | 200 | 1.0 | 3.0 | 0.00 | 0.00 | 0.00 | 20 | 1006.6 |
| 20260902211607 | 79 | 201 | 1.0 | 4.0 | 0.00 | 0.00 | 0.00 | 21 | 1006.7 |
| 20260902210057 | 78 | 166 | 1.0 | 3.0 | 0.00 | 0.00 | 0.00 | 20 | 1006.8 |
| 20260902204555 | 78 | 158 | 1.0 | 9.0 | 0.00 | 0.00 | 0.00 | 20 | 1006.9 |
| 20260902203054 | 78 | 187 | 1.0 | 3.0 | 0.00 | 0.00 | 0.00 | 20 | 1007.1 |
| 20260902201601 | 78 | 187 | 1.0 | 4.0 | 0.00 | 0.00 | 0.00 | 19 | 1007.1 |
| 20260902200051 | 79 | 191 | 1.0 | 2.0 | 0.00 | 0.00 | 0.00 | 18 | 1007.2 |
| 20260902194553 | 78 | 228 | 1.0 | 3.0 | 0.00 | 0.00 | 0.00 | 15 | 1007.3 |
| 20260902193049 | 78 | 235 | 1.0 | 4.0 | 0.00 | 0.00 | 0.00 | 15 | 1007.5 |
| 20260902191545 | 78 | 214 | 1.0 | 3.0 | 0.00 | 0.00 | 0.00 | 15 | 1007.5 |
| 20260902190042 | 77 | 189 | 1.0 | 2.0 | 0.00 | 0.00 | 0.00 | 15 | 1007.4 |
| 20260902184540 | 77 | 178 | 1.0 | 5.0 | 0.00 | 0.00 | 0.00 | 15 | 1007.8 |
| 20260902183039 | 77 | 201 | 1.0 | 3.0 | 0.00 | 0.00 | 0.00 | 15 | 1008.1 |
| 20260902181549 | 77 | 185 | 0.0 | 3.0 | 0.00 | 0.00 | 0.00 | 15 | 1008.0 |
| 20260902180036 | 76 | 237 | 1.0 | 2.0 | 0.00 | 0.00 | 0.00 | 15 | 1008.0 |
| 20260902174535 | 76 | 210 | 0.0 | 2.0 | 0.00 | 0.00 | 0.00 | 16 | 1007.9 |
| 20260902173043 | 76 | 195 | 0.0 | 2.0 | 0.00 | 0.00 | 0.00 | 17 | 1007.6 |
| 20260902171532 | 76 | 270 | 0.0 | 2.0 | 0.00 | 0.00 | 0.00 | 16 | 1007.6 |
| 20260902170033 | 75 | 224 | 1.0 | 3.0 | 0.00 | 0.00 | 0.00 | 16 | 1007.5 |
| 20260902164533 | 75 | 145 | 0.0 | 2.0 | 0.00 | 0.00 | 0.00 | 15 | 1007.6 |
| 20260902163028 | 74 | 214 | 0.0 | 2.0 | 0.00 | 0.00 | 0.00 | 16 | 1007.6 |
| 20260902161527 | 74 | 157 | 0.0 | 3.0 | 0.00 | 0.00 | 0.00 | 16 | 1007.6 |
| 20260902160026 | 74 | 218 | 1.0 | 2.0 | 0.00 | 0.00 | 0.00 | 16 | 1007.7 |
| 20260902154527 | 73 | 253 | 0.0 | 2.0 | 0.00 | 0.00 | 0.00 | 17 | 1007.7 |
| 20260902153021 | 72 | 208 | 0.0 | 2.0 | 0.00 | 0.00 | 0.00 | 17 | 1007.6 |
| 20260902151518 | 71 | 173 | 0.0 | 3.0 | 0.00 | 0.00 | 0.00 | 17 | 1007.4 |
| 20260902150017 | 70 | 168 | 0.0 | 2.0 | 0.00 | 0.00 | 0.00 | 18 | 1007.2 |
| 20260902144513 | 70 | 178 | 0.0 | 2.0 | 0.00 | 0.00 | 0.00 | 19 | 1007.3 |
| 20260902143009 | 68 | 147 | 0.0 | 1.0 | 0.00 | 0.00 | 0.00 | 21 | 1007.3 |
| 20260902141506 | 67 | 228 | 0.0 | 1.0 | 0.00 | 0.00 | 0.00 | 21 | 1007.3 |
| 20260902140004 | 66 | 359 | 0.0 | 2.0 | 0.00 | 0.00 | 0.00 | 23 | 1007.0 |
| 20260902134503 | 66 | 189 | 0.0 | 1.0 | 0.00 | 0.00 | 0.00 | 24 | 1007.1 |
| 20260902133002 | 65 | 200 | 0.0 | 2.0 | 0.00 | 0.00 | 0.00 | 25 | 1007.1 |
| 20260902131502 | 66 | 205 | 0.0 | 1.0 | 0.00 | 0.00 | 0.00 | 26 | 1007.0 |
| 20260902124603 | 66 | 211 | 1.0 | 2.0 | 0.00 | 0.00 | 0.00 | 27 | 1006.7 |
| 20260902123109 | 66 | 213 | 1.0 | 3.0 | 0.00 | 0.00 | 0.00 | 27 | 1006.4 |